Ephrata, WA
on Saturday, February 9, 2013

Saturday
Previous Day Next Day
Daily Summary
 ActualAverageRecord
Temperature
Mean Temperature °F 33°F  
Max Temperature 43°F 41°F 55°F (1967)
Min Temperature 23°F 25°F -3°F (1985)
Degree Days
Heating Degree Days 32 32  
Month to date heating degree days 278 296  
Since 1 July heating degree days 3714 4004  
Cooling Degree Days 0 0  
Month to date cooling degree days 0 0  
Year to date cooling degree days 0 0  
Moisture
Dew Point 25°F   
Average Humidity 75    
Maximum Humidity 92    
Minimum Humidity 57    
Precipitation
Precipitation 0.00 in 0.03 in 0.47 in (1959)
Month to date precipitation T 0.23  
Year to date precipitation 0.19 1.14  
Wind
Wind Speed 4 mph   
Max Wind Speed 25 mph   
Max Gust Speed 26 mph   
Visibility 10 miles   
Events     

Key: T is trace of precipitation, MM is missing value
Source: NWS Daily Summary
Time(PST)TemperatureDew PointHumidity Pressure Visibility Wind DirectionWind SpeedGust SpeedPrecipitationEvents Conditions
12:53 AM 28.0°F 25.0°F 88% 30.13 in 10.0 miles Calm Calm - N/A   Clear
1:53 AM 27.0°F 24.1°F 89% 30.13 in 10.0 miles NNE 5.8 mph - N/A   Clear
2:53 AM 26.1°F 21.9°F 84% 30.13 in 10.0 miles North 6.9 mph - N/A   Partly Cloudy
3:53 AM 24.1°F 21.0°F 88% 30.13 in 10.0 miles NNE 3.5 mph - N/A   Clear
4:53 AM 25.0°F 21.0°F 85% 30.13 in 10.0 miles NNE 4.6 mph - N/A   Clear
5:53 AM 24.1°F 19.9°F 84% 30.13 in 10.0 miles Calm Calm - N/A   Clear
6:53 AM 24.1°F 19.9°F 84% 30.15 in 10.0 miles North 3.5 mph - N/A   Clear
7:53 AM 25.0°F 21.0°F 85% 30.16 in 10.0 miles Calm Calm - N/A   Clear
8:53 AM 28.9°F 25.0°F 85% 30.15 in 10.0 miles Variable 3.5 mph - N/A   Clear
9:53 AM 30.0°F 24.1°F 79% 30.14 in 10.0 miles NE 9.2 mph 25.3 mph N/A   Clear
10:53 AM 32.0°F 26.1°F 79% 30.14 in 10.0 miles Calm Calm - N/A   Clear
11:53 AM 35.1°F 27.0°F 72% 30.14 in 10.0 miles ESE 3.5 mph - N/A   Overcast
12:53 PM 37.0°F 27.0°F 67% 30.12 in 10.0 miles Calm Calm - N/A   Clear
1:53 PM 39.0°F 27.0°F 62% 30.12 in 10.0 miles Calm Calm - N/A   Clear
2:53 PM 41.0°F 28.0°F 60% 30.11 in 10.0 miles WSW 4.6 mph - N/A   Clear
3:53 PM 43.0°F 28.9°F 58% 30.11 in 10.0 miles SSW 5.8 mph - N/A   Clear
4:53 PM 37.9°F 28.9°F 70% 30.13 in 10.0 miles SE 4.6 mph - N/A   Clear
5:53 PM 34.0°F 28.0°F 79% 30.14 in 10.0 miles Calm Calm - N/A   Clear
6:53 PM 39.9°F 27.0°F 60% 30.15 in 10.0 miles NW 9.2 mph - N/A   Clear
7:53 PM 37.9°F 26.1°F 62% 30.17 in 10.0 miles NW 6.9 mph - N/A   Clear
8:53 PM 37.9°F 26.1°F 62% 30.18 in 10.0 miles North 4.6 mph - N/A   Clear
9:53 PM 37.9°F 25.0°F 60% 30.18 in 10.0 miles NNW 3.5 mph - N/A   Clear
10:53 PM 37.9°F 26.1°F 62% 30.20 in 10.0 miles North 5.8 mph - N/A   Clear
11:53 PM 39.9°F 26.1°F 58% 30.22 in 10.0 miles North 12.7 mph - N/A   Clear
Moon Phase
Feb. 09 Feb. 10 Feb. 17 Feb. 25 Mar. 04
Sunrise:07:12 AM (PST) Moon Rise:06:26 AM (PST)2/9
Sunset:05:13 PM (PST) Moon Set:05:04 PM (PST)2/9

Copyright © 2014 The Weather Underground, Inc.